www.pogodaiklimat.ru

Погода и климат >> Архив погоды >> Аргентина >> Гуалегуайчу


ПОГОДА в Гуалегуайчу

  • Прогноз погоды в Гуалегуайчу
  • Монитор погоды в Гуалегуайчу

АРХИВ ПОГОДЫ в Гуалегуайчу

Время (UTC), дата Ветер
(напр.,м/с)
 
Видим.   Явления Облачность Т
(С)
Тd
(С)
f
(%)
Тe
(С)
Тes
(С)
Комфортность P
(гПа)
Po
(гПа)
Тmin
(С)
Tmax
(С)
R
(мм)
R24
(мм)
S
(см)
09 10.07 В 2 15 км ясно +13.0 +9.5 79 +12 +12 1016.1 1013.6
12 10.07 В 2 15 км 6/0
[Ac As]
+13.0 +10.3 84 +13 +13 1016.1 1013.6 +12.6 +13.0
15 10.07 СВ 3 15 км 8/0
[Ac As]
+17.8 +11.3 66 +18 +21 1016.1 1013.6
18 10.07 штиль 0 15 км 8/0
[Ac As]
+20.0 +12.6 62 +22 +24 комфорт 1013.4 1010.9
21 10.07 ЮВ 1 15 км 8/0
[Ac As]
+17.4 +12.8 74 +18 +18 1013.5 1010.9
00 11.07 ЮВ 2 15 км 8/0
[Ac As]
+14.0 +11.8 87 +14 +14 1013.6 1011.0 +13.0 +20.0
09 11.07 ЮВ 2 8000 м дымка 5/0
[Cs]
+10.7 +10.3 97 +9 +9 1012.4 1010.0
12 11.07 ЮВ 2 7000 м дымка 9/8 900 м
[Sc Cs]
+11.1 +10.7 97 +10 +10 1013.1 1010.5 +10.5 +14.0
15 11.07 В 4 15 км 9/0
[Ac und Cs]
+18.0 +13.3 74 +18 +20 1012.2 1009.7
18 11.07 В 4 15 км 9/0
[Ac As Cs]
+22.5 +14.6 61 +26 +28 жарко 1009.0 1006.5
21 11.07 В 3 15 км 10/0
[Ac As Cs]
+21.2 +15.8 71 +24 +24 комфорт 1009.0 1006.5
00 12.07 В 2 15 км 10/0
[Ac As]
+19.3 +16.2 82 +22 +22 комфорт 1008.3 1005.8 +11.1 +22.5
09 12.07 Ю 1 15 км 10/4 750 м
[Sc Ac As]
+14.4 +13.7 96 +15 +15 1008.0 1005.6
12 12.07 ЮЗ 3 3000 м дымка 10/4 750 м
[Sc Ac As]
+14.1 +13.2 94 +13 +13 1009.9 1007.4 +13.6 +19.3
15 12.07 ЮВ 3 9000 м дымка 10/10 300 м
[St]
+17.0 +5.1 45 +17 +17 1010.9 1008.4
18 12.07 Ю 5 15 км 10/10 300 м
[St]
+16.4 +14.1 86 +16 +16 1010.5 1008.1
21 12.07 Ю 3 15 км 10/10 360 м
[St]
+15.2 +13.4 89 +15 +15 1012.5 1010.0
00 13.07 ЮВ 1 7000 м дымка 4/4 240 м
[St]
+12.2 +11.5 95 +12 +12 1014.3 1011.7 +12.2 +17.5
09 13.07 Ю 1 200 м туман ясно +4.2 +3.2 93 +3 +3 1015.7 1013.2
12 13.07 Ю 2 200 м туман 10/10 120 м
[St]
+7.6 +7.6 100 +6 +6 1016.7 1014.1 +4.2 +12.2
15 13.07 Ю 2 1000 м дымка {туман} 10/10 120 м
[St]
+7.6 +7.6 100 +5 +5 1017.6 1015.0
18 13.07 ЮВ 2 15 км {туман} 10/10 180 м
[St]
+10.4 +8.8 90 +9 +9 1016.4 1013.8
21 13.07 Ю 1 15 км 6/0
[Ac trans]
+10.4 +8.4 87 +10 +10 1016.4 1013.8
00 14.07 штиль 0 15 км ясно +7.0 +6.6 97 +6 +6 1017.1 1014.5 +7.0 +11.8
09 14.07 ЮВ 2 200 м туман ясно +3.4 +3.2 99 +1 +1 1018.0 1015.4
12 14.07 штиль 0 900 м туман ясно +1.6 +1.3 98 0 +2 1018.9 1016.2 +1.3 +7.0
15 14.07 В 3 9000 м дымка {туман} ясно +11.3 +7.2 76 +10 +16 1019.3 1016.8
18 14.07 ЮВ 3 15 км {туман} ясно +14.4 +6.6 59 +14 +18 1016.9 1014.4
21 14.07 ЮВ 1 15 км 1/0
[Ac und]
+12.6 +6.8 68 +13 +13 1017.2 1014.6
00 15.07 В 2 15 км 1/0
[Ci fib]
+9.7 +5.6 76 +8 +8 1018.6 1016.0 +1.6 +15.3
09 15.07 Ю 1 15 км 9/0
[Ac und]
+6.9 +5.8 93 +6 +6 1018.7 1016.1
12 15.07 СЗ 2 8000 м дымка 1/0
[Ac und]
+6.1 +5.4 95 +4 +5 1020.5 1018.0 +4.5 +9.7
15 15.07 З 4 15 км ясно +15.0 +8.3 64 +14 +19 1020.6 1018.1
18 15.07 Ю 5 15 км ясно +16.0 +8.0 59 +15 +17 1019.6 1017.0
21 15.07 Ю 3 15 км 1/0
[Ci fib]
+13.4 +7.6 68 +13 +13 1020.6 1018.1
00 16.07 ЮЗ 1 15 км ясно +8.5 +6.3 86 +8 +8 1022.2 1019.6 +6.1 +16.5
09 16.07 штиль 0 700 м туман ясно +1.7 +1.2 96 0 0 1022.8 1020.1
12 16.07 В 1 500 м туман ясно +0.8 0.0 94 -1 -0 1024.0 1021.4 -0.1 +8.5
15 16.07 В 4 15 км {туман} ясно +13.7 +5.0 56 +13 +18 1024.7 1022.1
18 16.07 В 5 15 км {туман} ясно +16.6 +0.7 34 +16 +19 1022.3 1019.7
21 16.07 СВ 3 15 км ясно +14.1 +2.2 45 +13 +13 1021.8 1019.2
00 17.07 В 2 15 км ясно +9.9 +2.4 60 +9 +9 1023.0 1020.4 +0.8 +16.7

 

Местоположение метеостанции Гуалегуайчу (Аргентина): широта -33.00 долгота -58.61 высота над уровнем моря 21 м.

В архиве по умолчанию представлена погода в Гуалегуайчу за последнюю неделю. Архивные данные за месяц целиком и за предыдущие месяцы, начиная с января 2011 года, Вы можете получить, выбрав интересующий диапазон дат из раскрывающегося списка и нажав кнопку "Ввод!".


*Определитесь, кто Вы:
робот инопланетянин человек

Внимание! Время в таблицах - всемирное. Для получения местного времени необходимо прибавить поправку, которая равна -3 ч.

Смотрите также архив погоды в соседних городах и на ближайших метеорологических станциях:

Погода в Мерседесе (Уругвай) (58 км)
Погода в Пайсанду (Уругвай) (92 км)
Погода в Янге (Уругвай) (98 км)
Погода в Буэнос-Айресе аэропорт (Аргентина) (174 км)
Погода в Буэнос-Айресе (Аргентина) (176 км)
Погода в Колонии (Уругвай) (177 км)
Погода в Сальто (Уругвай) (191 км)
Погода в Конкордии (Аргентина) (197 км)
Погода в Пасо-де-лос-Торосе (Уругвай) (197 км)
Погода в Дурасно (Уругвай) (200 км)

Пояснения к столбцам:

Ветер - указаны скорость ветра в м/с - средняя за 10 мин, порывы в срок и между сроками (в фигурных скобках) и направление, откуда дует ветер: С - северный, СВ - северо-восточный, В - восточный, ЮВ - юго-восточный, Ю - южный, ЮЗ - юго-западный, З - западный, СЗ - северо-западный.
Видимость - горизонтальная дальность видимости в метрах или километрах. При видимости от 1 до 10 км при отсутствии осадков обычно наблюдается дымка, при ухудшении видимости до 1 км и менее - туман. В сухую погоду видимость может ухудшаться дымом, пылью или мглою.
Явления - указаны атмосферные явления, наблюдавшиеся в срок или в последний час перед сроком; фигурными скобками обозначены явления, наблюдавшиеся между сроками (за 1-3 часа до срока); квадратными скобками обозначены град или гололедные отложения с указанием их диаметра в мм.
Облачность - указаны через наклонную черту общая и нижняя облачность в баллах и высота нижней границы облаков в метрах; квадратными скобками обозначены формы облаков: Ci - перистые, Cs - перисто-слоистые, Cc - перисто-кучевые, Ac - высококучевые, As - высокослоистые, Sc - слоисто-кучевые, Ns - слоисто-дождевые, Cu - кучевые, Cb - кучево-дождевые. Подробнее классификацию облаков см. в Атласе облаков (PDF).
T - Температура воздуха - температура, измеренная на высоте 2 м над землей.
Td - Температура точки росы - температура, при понижении до которой содержащийся в воздухе водяной пар достигнет насыщения.
f - Относительная влажность воздуха - влажноcть воздуха, измеренная на высоте 2 м над землей.
Te - Эффективная температура - температура, которую ощущает одетый по сезону человек в тени. Характеристика душности погоды. При расчете учитывается влияние влажности воздуха и скорости ветра на теплоощущения человека.
Tes - Эффективная температура на солнце - температура, которую ощущает человек, с поправкой на солнечный нагрев. Характеристика знойности погоды. Зависит от высоты солнца над горизонтом, облачности и скорости ветра. Ночью, в пасмурную погоду, а также при ветре 12 м/с и более поправка равна нулю.
P - Атмосферное давление - приведенное к уровню моря атмосферное давление.
Po - Атмосферное давление - измеренное на уровне метеостанции атмосферное давление.
Tmin - Минимальная температура - минимум температуры воздуха на высоте 2 м над землей.
Tmax - Максимальная температура - максимум температуры воздуха на высоте 2 м над землей.
R - Количество осадков - Количество выпавших осадков за период времени, мм. При наведении курсора мыши на число - период времени, за который выпало указанное количество осадков.
R24 - Количество осадков - Количество выпавших осадков за 24 часа, мм.
S - Снежный покров - Высота снежного покрова, см. При наведении курсора мыши на число - состояние снежного покрова и степень покрытия местности в баллах.